Location: Bun Machan
(52.1403°N, 7.3744°W)
Time: 18:04:16
(UTC+00:00)

Cosmos 1980 Rocket - Pass Details

Date: 14 July 2020
Orbit: 828 x 851 km, 71.0° (Epoch: 13 August)

Event Time Altitude Azimuth Distance (km) Brightness Sun altitude
Rises 03:21:17 0° 326° (NNW) 3,430 5.6 -7.9°
Reaches altitude 10° 03:23:48 10° 322° (NW) 2,490 4.8 -7.6°
Maximum altitude 03:29:19 51° 248° (WSW) 1,064 2.4 -7.1°
Drops below altitude 10° 03:34:46 10° 174° (S) 2,467 4.2 -6.5°
Sets 03:37:16 0° 169° (S) 3,395 5.0 -6.3°
